Home   Weather   Nanning   Past weeks

Flag for China Past Weather in Nanning, Guangxi, China — Yesterday and Last 2 Weeks

Now
59 °F

Passing clouds.


Feels Like: 58 °F
Forecast: 51 / 63 °F
Wind: 8 mph from Northeast

Location: Nanning Airport

Current Time: Jan 20, 2017 at 6:11:49 pm

Latest Report: Jan 20, 2017 at 5:00 pm


Visibility: N/A

Pressure: 30.18 "Hg

Humidity: 59%

Dew Point: 45 °F

Location of NanningLocation

Past Weather in Nanning — Graph

°F

Nanning Temperature Yesterday

Maximum temperature yesterday: 55 °F (at 11:00 am)
Minimum temperature yesterday: 54 °F (at 12:00 am)
Average temperature yesterday: 54 °F

High & Low Weather Summary for the Past Weeks

 TemperatureHumidityPressure
High79 °F (Jan 7, 2:00 pm)100% (Jan 10, 6:00 pm)30.36 "Hg (Jan 10, 6:00 pm)
Low48 °F (Jan 12, 4:00 pm)55% (Jan 20, 4:00 pm)29.83 "Hg (Jan 7, 3:00 pm)
Average58 °F86%30.07 "Hg
* Reported Jan 5 4:00 pm — Jan 20 4:00 pm, Nanning, Weather by CustomWeather, © 2017

Note: Actual official high and low records may vary slightly from our data, if they occured in-between our weather recording intervals... More about our weather records

Advertising

Nanning Weather History for the Previous 24 Hours

Scroll right to see more
 ConditionsComfort  
Time TempWeatherWind HumidityBarometerVisibility
4:00 pm
Fri, Jan 20
61 °FPassing clouds.6 mph55%30.18 "HgN/A
3:00 pm59 °FPassing clouds.8 mph59%30.18 "HgN/A
2:00 pm59 °FScattered clouds.8 mph59%30.24 "HgN/A
1:00 pm57 °FScattered clouds.6 mph63%30.27 "HgN/A
12:00 pm57 °FScattered clouds.8 mph63%30.33 "HgN/A
11:00 am55 °FSunny.8 mph67%30.36 "Hg10 mi
10:00 am54 °FPassing clouds.6 mph72%30.36 "HgN/A
9:00 am54 °FPassing clouds.3 mph77%30.33 "HgN/A
8:00 am52 °FOvercast.3 mph82%30.30 "HgN/A
7:00 am52 °FOvercast.3 mph82%30.30 "HgN/A
6:00 am52 °FOvercast.6 mph82%30.27 "HgN/A
5:00 am52 °FMostly cloudy.6 mph82%30.27 "HgN/A
4:00 am54 °FMostly cloudy.6 mph88%30.24 "HgN/A
3:00 am54 °FMostly cloudy.3 mph88%30.24 "HgN/A
2:00 am54 °FMostly cloudy.3 mph88%30.24 "HgN/A
1:00 am54 °FMostly cloudy.3 mph88%30.24 "HgN/A
12:00 am54 °FMostly cloudy.3 mph88%30.24 "HgN/A
11:00 pm
Thu, Jan 19
54 °FMostly cloudy.3 mph88%30.24 "HgN/A
10:00 pm54 °FMostly cloudy.3 mph88%30.24 "Hg6 mi
9:00 pm54 °FMostly cloudy.1 mph88%30.24 "Hg6 mi
8:00 pm54 °FMostly cloudy.3 mph94%30.21 "Hg6 mi
7:00 pm54 °FFog.3 mph94%30.18 "Hg3 mi
6:00 pm54 °FMore clouds than sun.3 mph94%30.18 "Hg5 mi
Weather by CustomWeather, © 2017

See weather overviewHow to use our weather pages